GFSNIL_prec_cthk_000.txt.gz
RH
51 50 47 46 47 47 44 44 44 42 39 35 30 27 26 25 25 25 25 23 20 17
49 49 48 49 51 54 49 45 46 45 42 37 30 27 27 26 26 26 24 20 18 16
50 50 51 49 58 58 49 47 50 47 42 36 30 29 28 28 27 24 22 19 16 15
52 53 52 59 64 55 50 51 51 46 40 32 30 31 29 28 25 23 19 17 18 19
55 59 64 61 63 57 51 49 47 43 34 32 33 30 29 27 24 20 18 19 21 21
64 68 64 61 65 57 48 45 44 35 34 35 31 31 29 25 21 19 21 23 22 23
70 68 65 64 64 51 45 44 36 35 36 34 33 31 27 22 21 23 23 24 24 25
72 68 67 68 58 46 43 36 38 36 36 37 34 29 24 23 26 25 25 25 26 29
70 70 70 67 49 41 39 38 37 38 39 36 30 27 25 27 27 26 26 26 29 30
71 73 69 53 43 42 36 36 40 41 36 31 29 27 27 28 27 27 26 27 29 30
73 66 51 45 39 37 37 41 41 36 33 30 28 27 26 25 26 24 24 27 30 31
63 51 41 39 38 38 39 39 35 33 31 29 29 27 25 28 26 26 27 28 30 34
43 41 41 39 38 39 37 33 31 32 32 30 27 25 25 29 30 31 30 30 32 34
43 41 40 39 38 34 32 31 33 32 29 26 25 25 26 31 37 36 35 36 36 39

GFSNIL_prec_cthk_003.txt.gz
RH
46 51 54 56 55 53 52 51 54 51 47 44 40 37 32 29 28 28 27 28 28 27
50 55 57 56 54 54 52 53 60 55 48 45 41 36 30 29 29 28 30 30 28 24
53 55 57 57 56 56 56 59 64 56 47 42 37 32 31 30 30 32 31 30 26 22
56 57 59 59 60 62 66 62 64 58 45 35 32 33 33 30 33 34 33 29 24 22
59 60 61 63 66 70 70 64 63 52 37 32 34 35 31 34 37 36 32 26 23 24
62 63 65 70 74 74 71 65 62 43 35 36 36 35 35 39 39 34 28 26 26 26
64 67 72 75 78 76 70 68 55 39 36 38 37 36 41 40 35 29 27 27 26 25
68 72 75 77 78 74 72 60 43 39 39 37 39 41 41 36 30 28 27 25 23 22
71 74 77 80 78 77 62 46 39 35 38 38 41 41 34 30 29 26 24 21 19 21
74 80 81 80 77 63 46 37 36 38 37 41 39 33 30 30 30 25 22 21 22 23
80 82 82 71 58 41 36 37 36 36 40 37 32 30 28 29 26 23 23 25 27 29
82 73 63 49 39 37 38 36 37 39 36 33 31 28 25 26 25 25 27 28 31 32
65 56 44 38 40 39 36 37 37 35 35 32 28 25 23 27 28 30 29 32 31 31
47 41 43 43 39 37 36 36 36 35 32 29 26 24 23 29 32 33 35 31 30 34

GFSNIL_prec_cthk_006.txt.gz
RH
51 47 46 50 55 57 57 58 56 54 52 52 55 48 36 32 31 30 27 28 32 30
47 46 49 52 55 57 59 59 58 58 59 57 56 51 37 30 28 28 31 34 32 32
49 50 52 55 56 58 61 61 61 64 66 63 58 44 34 29 29 33 36 34 33 37
55 55 56 58 60 62 63 64 67 72 71 65 55 43 34 32 37 38 35 35 38 35
59 60 60 61 63 64 65 68 73 75 71 62 51 39 37 42 40 35 37 39 35 30
63 62 62 64 66 67 70 74 76 74 68 57 45 41 42 36 36 38 40 34 30 28
63 64 66 67 70 72 75 78 77 74 63 50 43 39 36 36 39 40 34 30 27 23
67 68 68 71 73 77 81 80 78 66 51 40 36 35 36 40 39 33 30 27 24 23
69 69 71 76 78 82 83 80 64 48 38 35 35 36 40 37 34 32 27 25 25 25
69 73 76 79 82 83 76 62 45 37 36 35 38 41 36 32 31 29 27 27 26 26
76 78 79 82 81 71 59 42 37 37 34 39 40 36 32 28 27 29 29 28 29 30
77 81 81 77 69 53 39 39 36 35 40 39 35 31 27 26 30 30 30 29 30 29
80 76 72 60 42 40 40 35 38 40 38 34 30 27 26 30 32 31 30 33 31 31
69 61 46 42 43 38 37 40 40 37 34 31 28 27 26 29 31 32 36 33 30 30

GFSNIL_prec_cthk_009.txt.gz
RH
60 55 57 52 46 47 49 55 58 60 62 62 61 60 58 53 39 33 31 29 30 32
60 58 57 51 49 49 51 56 60 63 64 63 63 64 62 53 40 35 32 34 38 40
60 57 53 54 54 53 55 59 63 66 66 65 66 67 62 48 41 36 39 40 40 34
58 53 55 59 60 59 60 63 67 68 69 68 69 67 57 49 42 42 43 35 33 35
56 56 58 61 63 63 64 68 70 72 72 71 72 67 57 47 42 38 32 34 36 34
61 60 60 63 66 65 70 71 73 75 74 78 75 62 48 39 35 32 36 37 34 29
65 64 63 65 66 71 73 74 76 78 82 79 65 49 38 34 34 38 37 33 30 28
67 66 63 66 71 73 74 78 81 84 80 65 50 38 34 36 39 37 31 30 29 28
67 64 66 71 71 74 80 83 85 78 65 49 37 34 38 40 36 31 29 29 28 28
64 68 70 72 77 81 84 86 74 63 44 36 36 40 40 34 30 29 29 29 29 30
68 71 76 80 83 86 83 70 57 39 35 37 42 39 33 29 28 29 30 30 29 30
77 80 82 83 85 74 64 46 38 36 40 43 37 32 29 29 30 30 29 28 29 29
82 83 83 76 68 52 41 38 38 43 41 35 31 30 30 29 31 31 29 30 31 30
80 77 70 53 42 41 37 41 43 39 34 31 31 30 27 25 31 30 34 33 32 28

GFSNIL_prec_cthk_015.txt.gz
RH
51 56 64 66 66 73 67 66 61 54 57 59 60 60 61 63 66 66 63 56 48 44
57 64 65 67 74 72 66 67 61 58 60 60 61 63 66 68 69 69 64 55 47 44
66 68 70 73 72 68 71 66 59 61 63 64 69 71 72 72 73 70 63 52 49 45
74 76 73 78 74 72 70 64 64 65 69 71 73 75 75 76 75 68 57 55 52 41
75 77 75 77 73 71 70 66 66 68 71 74 78 76 80 80 73 63 60 55 44 39
76 76 80 79 72 73 68 67 69 71 75 76 75 84 85 77 68 61 57 45 41 36
83 82 80 76 75 72 67 70 73 76 78 76 84 88 80 72 62 56 45 40 37 37
87 84 85 77 75 68 72 74 78 79 81 85 90 83 72 61 54 42 38 38 36 36
83 87 80 73 70 78 78 79 78 82 84 89 84 70 60 51 39 34 36 36 35 35
82 74 68 76 83 79 78 78 80 83 89 83 66 59 46 37 35 34 35 36 35 32
82 76 86 83 76 79 78 80 84 89 77 63 54 40 36 35 34 34 36 34 31 27
89 81 74 73 77 80 83 91 84 68 59 44 38 37 35 34 33 33 32 29 25 28
71 73 76 78 85 92 87 72 62 45 40 39 38 36 35 33 30 30 26 24 24 29
76 80 85 89 87 74 62 44 40 40 39 38 37 35 34 28 24 27 25 25 25 24

GFSNIL_prec_cthk_018.txt.gz
RH
45 44 48 57 62 67 70 71 71 73 74 60 56 61 61 61 62 63 66 68 66 62
50 47 58 62 68 71 71 69 73 73 71 58 60 61 60 63 67 71 72 71 68 62
52 57 64 66 70 72 74 74 72 70 67 58 60 63 66 70 74 76 74 70 66 58
64 68 71 71 76 75 75 76 70 73 64 60 66 69 73 75 77 76 73 70 64 51
76 74 75 74 75 79 80 72 75 71 64 68 72 75 76 79 78 76 75 70 54 54
79 76 78 82 80 79 79 74 73 70 68 72 76 77 81 85 80 76 71 58 56 47
82 81 84 83 79 80 78 74 74 70 71 75 78 83 87 87 78 71 62 57 45 36
82 87 87 79 81 84 78 78 73 72 75 80 84 86 89 78 72 64 55 40 31 35
79 85 80 86 85 82 82 79 72 78 87 84 86 84 78 73 63 50 35 31 35 36
83 86 94 90 89 86 77 79 86 87 84 85 85 80 71 58 42 31 34 36 36 34
95 97 94 88 82 81 87 85 81 82 85 86 77 62 48 34 33 35 35 34 31 28
96 93 87 94 90 81 79 81 90 92 80 65 50 36 34 35 37 34 30 27 25 23
94 91 85 76 73 79 87 92 81 64 49 37 34 35 38 37 33 27 23 21 21 22
82 77 78 79 86 90 78 62 44 38 36 35 38 40 37 32 26 24 26 25 22 20

GFSNIL_prec_cthk_021.txt.gz
RH
43 51 63 62 56 56 60 66 74 76 76 74 71 68 66 59 62 62 63 65 69 69
50 56 62 63 59 63 63 69 76 80 78 72 72 76 65 64 64 63 66 71 74 72
59 61 65 64 63 63 69 76 79 81 78 72 74 74 65 65 65 68 70 74 76 71
69 71 68 65 65 72 78 81 79 88 78 85 73 77 67 66 71 72 74 76 76 70
70 70 68 70 73 79 79 79 81 86 80 77 80 72 69 71 74 76 79 79 75 70
77 71 73 74 82 81 82 88 86 85 81 78 77 71 73 76 78 83 82 77 73 66
77 75 78 82 82 85 86 87 86 89 84 80 77 74 77 81 87 85 79 73 66 61
80 79 79 88 85 84 89 92 88 86 81 79 77 78 85 88 87 81 77 70 57 40
76 81 85 81 87 93 90 85 84 85 82 79 81 87 89 85 82 78 68 48 34 34
80 81 95 84 93 94 90 84 84 88 86 89 88 89 83 81 75 57 37 33 37 37
87 97 91 90 95 97 92 95 94 92 90 89 84 84 79 62 40 33 36 37 32 27
88 88 97 98 98 96 95 94 88 85 85 84 79 60 38 33 35 39 35 27 24 23
98 99 97 96 96 87 82 83 85 84 73 52 38 34 34 39 39 31 26 23 22 21
97 97 93 89 81 82 88 80 61 46 38 34 33 37 39 34 30 28 26 22 18 17

GFSNIL_prec_cthk_024.txt.gz
RH
40 46 52 54 55 57 56 60 68 74 76 80 82 78 73 74 65 69 63 62 64 62
34 41 49 49 55 59 67 70 75 78 75 80 81 80 78 70 68 80 65 65 64 66
32 40 46 58 61 64 72 77 76 75 76 82 80 79 84 73 79 80 70 67 67 70
33 41 52 66 73 72 76 77 78 77 77 83 85 85 76 76 81 72 72 70 72 74
37 47 63 69 79 77 75 78 75 76 85 87 82 94 82 92 71 74 73 75 79 79
47 56 69 79 86 81 76 73 76 85 86 84 84 88 80 79 74 77 76 78 79 85
60 72 80 84 90 79 80 79 86 82 83 97 84 82 79 78 80 77 80 81 87 82
68 82 86 93 88 79 78 81 82 84 99 86 88 86 88 80 82 80 86 87 82 74
82 93 88 95 82 77 82 84 91 96 86 87 82 81 91 85 83 88 85 78 71 56
88 90 92 82 84 85 89 97 92 94 96 90 89 90 94 90 87 79 74 61 38 32
98 93 88 90 95 95 95 93 93 97 97 98 98 95 87 80 73 57 38 32 36 38
94 90 90 96 93 98 96 98 97 98 99 94 87 84 69 51 36 32 36 39 33 28
97 95 98 98 97 97 97 98 96 91 87 79 59 39 35 32 36 39 34 29 24 20
97 96 98 98 98 96 90 86 79 63 44 38 34 33 38 40 36 31 26 21 18 18

GFSNIL_prec_cthk_027.txt.gz
RH
30 35 38 44 48 61 60 58 63 65 70 72 78 81 80 90 81 75 72 72 67 67
26 29 35 43 47 54 64 68 63 68 71 74 79 83 86 91 80 75 78 75 71 77
28 28 30 33 45 44 54 64 66 65 74 81 83 87 86 82 89 79 79 79 76 81
30 32 31 29 30 44 49 56 65 73 80 84 86 85 78 76 81 81 94 90 82 80
35 35 39 38 35 37 52 63 72 82 86 87 81 80 80 83 82 88 90 87 94 85
40 38 44 46 48 53 58 75 87 89 85 82 84 79 80 86 96 88 88 86 84 79
51 46 49 59 58 60 68 81 90 90 89 84 80 76 84 94 95 89 92 86 85 84
49 55 66 66 64 66 74 86 97 87 86 78 80 85 87 92 93 91 93 88 88 85
51 57 61 64 69 76 78 84 97 89 88 77 87 94 97 98 98 92 86 91 87 80
56 64 71 77 80 84 83 86 88 93 82 89 96 96 99 95 94 97 88 84 75 63
80 84 94 95 95 88 88 97 95 91 92 99 98 98 98 98 92 84 73 61 46 33
97 95 99 97 98 96 94 96 96 98 98 98 97 99 96 83 71 59 39 33 36 38
98 97 98 99 92 96 95 99 98 98 99 97 90 76 64 47 36 34 37 37 30 25
97 97 96 95 98 96 98 97 97 92 76 57 43 35 33 36 37 34 30 26 23 22

GFSNIL_prec_cthk_030.txt.gz
RH
24 23 23 30 44 50 55 53 62 68 75 74 70 71 78 80 85 87 83 86 88 84
29 27 29 27 31 43 49 56 58 63 74 80 70 72 77 80 87 89 86 86 91 85
39 35 32 31 30 30 38 47 56 60 67 77 97 77 82 83 85 87 86 83 88 81
50 49 43 37 35 35 35 38 48 54 61 75 85 88 83 86 86 84 87 82 83 82
57 56 53 50 44 44 44 42 46 56 64 70 78 84 84 84 86 84 92 79 87 93
69 65 61 55 52 52 56 53 49 55 62 67 73 77 81 86 89 88 83 97 79 97
77 73 68 65 55 56 62 61 62 62 67 76 78 82 84 84 85 96 88 87 97 95
82 79 73 66 60 60 65 66 67 71 74 77 82 85 87 92 96 90 86 87 97 95
82 73 66 66 68 76 78 76 75 79 79 82 81 90 88 95 92 88 90 97 98 98
62 58 61 60 69 82 81 79 77 85 83 82 87 91 93 96 95 93 98 98 95 87
60 60 65 66 72 74 81 93 84 85 84 83 88 98 98 97 92 97 95 84 77 66
72 69 74 78 81 83 92 90 93 96 91 87 94 98 94 95 93 82 69 60 51 38
93 93 95 96 98 98 98 95 95 98 98 98 96 96 86 73 58 44 35 36 36 29
98 98 98 98 98 96 97 99 98 97 94 83 67 52 40 34 36 36 31 27 24 22

GFSNIL_prec_cthk_033.txt.gz
RH
22 22 23 24 24 25 29 41 54 57 58 64 72 78 78 81 88 88 88 89 86 85
32 31 30 29 28 29 29 32 40 50 58 63 70 80 87 86 88 90 90 86 84 86
38 39 39 39 38 36 34 34 38 45 53 61 67 72 81 90 95 90 92 89 85 84
41 43 44 46 46 47 46 42 42 45 49 54 64 71 75 82 92 86 95 92 84 83
50 50 53 54 55 59 61 56 52 54 52 54 60 61 70 82 87 90 96 87 84 84
55 61 60 57 64 63 68 63 62 63 60 57 61 69 66 71 78 88 87 85 85 93
67 75 75 68 64 72 79 73 63 65 66 64 65 68 71 74 78 77 75 82 83 87
83 85 81 75 84 86 82 77 71 66 67 69 71 76 75 70 71 76 82 92 86 92
75 78 80 80 85 84 82 79 75 75 74 75 77 76 75 77 84 89 90 88 91 95
59 64 66 67 71 77 83 84 85 84 83 78 82 83 81 94 93 94 99 95 93 97
56 55 58 61 65 69 76 87 94 97 89 86 89 96 97 85 88 97 94 94 96 88
77 76 68 72 71 69 77 80 89 96 98 98 92 79 90 87 90 98 92 84 66 50
89 94 95 97 98 90 90 93 96 92 98 97 98 98 92 85 77 62 47 41 39 31
93 94 95 97 97 97 98 98 98 98 98 95 80 65 54 46 42 39 32 26 22 20

GFSNIL_prec_cthk_036.txt.gz
RH
23 24 26 29 32 33 32 32 28 33 41 48 55 57 66 71 77 84 89 92 92 94
29 30 31 33 34 33 37 38 37 32 35 44 53 59 65 66 74 82 88 89 91 92
34 33 33 33 35 37 39 42 43 44 44 44 49 59 62 66 74 81 90 95 96 92
37 39 39 39 41 46 47 49 50 51 50 51 56 58 64 68 72 79 84 91 94 99
36 38 41 46 50 55 59 62 62 58 60 60 58 59 66 68 69 75 83 88 89 90
46 46 45 48 52 65 71 73 68 66 67 65 63 65 68 72 75 72 71 75 79 88
47 47 50 50 62 76 74 77 81 79 73 69 69 73 74 76 77 78 76 76 77 85
51 49 51 55 62 67 69 76 78 73 80 82 83 85 84 82 79 84 89 83 79 93
54 51 55 57 59 64 70 76 79 86 88 87 86 88 86 86 81 79 86 83 78 77
55 55 51 55 55 57 69 77 82 84 84 88 87 90 87 89 87 84 86 90 97 98
56 55 59 58 57 58 60 71 79 89 89 90 93 98 91 91 90 93 95 98 97 88
66 72 71 70 71 73 70 70 82 95 96 93 93 95 96 98 98 97 94 85 81 76
73 75 80 83 88 88 90 90 89 94 98 97 98 98 98 96 93 85 72 53 46 40
70 72 75 81 85 88 92 95 97 97 97 95 86 77 61 52 48 43 38 32 26 21

GFSNIL_prec_cthk_039.txt.gz
RH
24 25 26 26 31 40 45 48 49 44 40 41 45 50 58 57 59 61 65 74 76 82
32 31 32 31 33 36 39 41 44 50 46 42 44 46 50 57 60 60 67 71 79 82
37 36 34 31 32 34 35 38 45 46 49 50 55 56 57 58 62 65 66 69 73 80
34 36 37 35 35 36 37 38 43 52 56 65 65 66 69 68 68 73 75 74 76 79
37 40 41 37 37 39 42 41 41 47 54 65 76 73 73 74 70 75 80 85 85 87
45 49 49 43 40 39 38 41 46 53 64 75 80 80 78 78 78 78 76 84 90 94
51 47 45 42 42 43 43 47 52 60 64 73 87 82 83 80 82 83 77 79 85 92
48 48 44 44 44 44 48 52 57 67 73 77 80 78 77 81 83 80 84 87 87 90
48 48 44 46 47 47 47 51 57 66 71 73 82 88 88 90 94 94 93 94 93 91
49 48 46 49 50 51 49 51 52 60 71 74 77 83 90 93 94 97 97 95 93 89
50 51 54 56 59 58 58 56 60 66 71 79 82 87 91 95 95 98 94 95 94 92
62 63 65 65 66 69 71 71 72 75 81 86 92 91 90 93 96 95 97 97 98 93
57 58 62 64 68 75 76 78 79 80 82 85 90 94 96 97 96 89 82 75 62 49
50 51 54 56 59 64 67 68 67 65 59 54 50 45 45 44 44 41 38 32 24 19

GFSNIL_prec_cthk_042.txt.gz
RH
26 25 24 26 26 30 39 42 50 49 55 59 58 55 57 61 65 66 66 65 65 66
32 33 32 30 30 30 32 34 40 45 46 45 48 52 55 59 59 65 65 71 71 71
30 31 32 32 31 30 29 31 33 36 40 47 52 55 57 62 66 73 81 85 83 81
30 32 34 33 32 33 35 37 38 38 39 41 43 46 53 61 68 77 83 91 94 92
33 37 40 40 39 38 35 35 34 33 32 35 41 49 59 64 71 78 78 81 88 90
43 45 46 45 43 40 36 35 36 35 34 35 43 52 58 63 75 87 85 88 89 92
49 50 46 44 43 40 39 39 39 40 40 41 47 52 59 65 70 74 85 90 90 93
50 46 46 45 44 43 41 42 41 43 44 44 49 56 60 66 73 77 82 84 85 84
49 48 48 46 44 44 43 44 43 44 45 47 50 58 60 67 75 79 83 84 89 97
51 51 49 47 47 47 47 47 47 47 48 53 61 64 69 71 81 88 94 93 92 94
55 56 57 57 55 52 52 55 58 60 62 65 69 75 80 84 83 86 95 96 98 98
60 60 60 59 59 58 60 61 61 64 67 70 72 75 78 83 88 90 90 93 96 94
52 51 51 52 53 56 56 55 56 56 53 50 46 43 42 41 39 42 45 48 43 39
48 48 48 48 48 46 40 34 31 29 28 27 27 27 25 23 21 19 18 17 16 15

GFSNIL_prec_cthk_045.txt.gz
RH
25 26 26 26 25 25 26 32 35 38 34 39 46 45 53 57 57 58 63 69 76 85
28 30 31 31 31 31 30 29 29 35 39 39 41 44 45 53 53 53 53 57 66 72
28 29 28 27 27 28 28 29 30 31 33 36 36 37 39 39 42 44 48 52 60 70
28 30 30 30 30 30 30 31 34 35 34 33 34 36 36 37 40 46 49 52 59 64
32 32 33 35 38 37 37 36 33 31 29 28 29 32 36 40 43 46 48 51 58 67
39 39 41 43 45 42 40 37 34 33 33 32 32 33 35 40 43 47 54 61 65 69
44 45 46 47 44 42 41 37 38 38 37 36 37 39 39 44 46 49 56 64 71 77
48 49 47 44 45 43 42 43 42 39 38 37 39 40 43 48 51 53 61 67 75 77
48 48 46 47 45 45 47 47 45 43 42 41 42 45 49 54 59 63 66 74 78 84
48 47 46 47 48 49 50 47 46 45 46 48 52 55 59 63 66 68 71 76 81 84
51 54 56 58 58 56 53 53 54 54 55 54 54 53 53 57 63 70 72 73 80 85
50 52 54 54 56 56 55 53 50 49 47 42 39 37 35 33 32 31 33 33 31 30
45 47 50 51 49 48 48 45 36 30 28 26 24 23 21 19 17 16 15 14 13 12
43 45 46 46 42 36 30 28 25 24 24 23 21 20 18 16 16 16 15 15 16 16

GFSNIL_prec_cthk_048.txt.gz
RH
26 25 24 23 23 23 24 24 25 26 31 35 38 39 40 43 48 48 49 52 53 54
26 26 26 26 27 29 30 30 30 29 29 32 37 39 38 38 44 45 46 44 43 44
26 26 26 27 28 27 26 26 26 28 28 29 32 35 36 37 39 39 39 38 40 38
29 28 29 30 29 28 28 28 28 30 32 33 32 31 32 32 31 31 33 34 37 41
33 34 34 33 31 31 34 36 36 35 33 32 30 29 29 30 31 33 38 40 42 46
37 38 39 40 40 40 42 42 39 37 35 34 34 33 32 32 33 35 39 41 45 50
40 41 42 44 44 44 42 40 39 37 37 37 35 34 34 34 38 41 45 47 49 53
44 45 47 48 44 43 43 40 38 40 40 38 36 36 37 40 45 48 51 54 54 60
48 48 48 46 45 43 43 42 43 44 43 42 42 42 46 50 52 54 56 57 61 64
46 46 45 44 44 45 46 47 47 48 48 49 49 49 48 48 49 52 54 52 54 64
47 48 50 50 50 50 50 51 51 50 48 46 41 37 36 36 35 30 27 26 26 28
47 46 46 47 50 52 53 49 46 41 34 30 26 24 21 19 17 15 14 13 13 12
43 45 46 46 46 47 46 36 29 27 25 24 23 21 19 17 15 15 15 15 15 15
40 41 42 43 41 35 31 29 28 28 26 24 22 21 20 19 19 19 19 20 20 20

GFSNIL_prec_cthk_051.txt.gz
RH
24 23 23 24 25 26 25 25 23 23 23 24 29 34 40 43 45 42 40 42 47 46
27 28 29 28 28 27 26 26 26 27 29 29 29 30 35 40 43 45 44 40 43 41
31 31 30 29 28 27 26 25 25 25 26 26 28 29 30 33 37 37 38 39 39 41
35 34 34 32 29 28 28 28 28 27 27 29 30 32 34 34 33 33 33 32 33 35
38 35 35 34 33 33 33 32 33 34 35 35 34 33 31 30 29 29 30 33 36 38
38 37 37 37 40 41 40 40 39 40 39 38 35 33 33 33 32 32 32 34 36 39
41 40 41 41 42 43 44 42 41 40 38 37 36 35 35 33 33 35 37 40 43 46
45 45 44 45 46 46 44 43 41 40 39 38 38 36 36 36 37 41 43 45 48 51
48 48 47 47 48 46 44 42 42 41 40 41 42 44 45 45 45 45 46 47 48 49
47 47 48 46 45 42 43 43 43 43 44 48 49 46 42 40 38 36 34 30 28 27
48 47 46 46 46 45 44 45 45 47 49 46 37 30 25 22 19 17 16 15 14 13
50 49 46 46 46 46 47 46 46 41 32 26 24 23 22 19 17 16 16 15 15 15
45 45 46 45 44 44 44 36 27 27 27 26 25 23 21 19 19 19 19 19 20 20
43 44 44 43 42 34 27 26 27 29 29 28 26 25 23 23 23 23 24 25 25 25

GFSNIL_prec_cthk_054.txt.gz
RH
28 27 26 24 24 24 23 23 25 26 26 26 25 25 27 33 40 48 47 53 46 48
31 29 28 26 26 25 27 29 29 27 27 27 28 28 30 32 36 39 46 48 47 48
33 32 30 30 30 32 30 29 29 28 26 25 25 27 28 30 31 33 38 42 44 43
35 36 36 36 35 34 33 31 31 28 26 27 28 30 31 33 34 36 37 36 35 34
41 41 41 40 39 38 38 35 32 33 34 35 35 36 35 35 32 31 32 32 32 34
44 45 46 44 41 38 37 38 40 41 41 39 38 37 35 34 35 35 34 34 34 36
49 45 43 42 41 40 40 43 44 42 41 39 37 36 36 37 37 37 38 38 39 41
45 46 45 46 47 46 45 46 44 42 40 38 37 37 37 38 41 45 47 47 46 45
49 49 50 49 49 50 48 47 46 43 40 38 38 38 43 46 47 45 43 42 38 30
50 49 50 50 51 50 47 46 44 42 41 41 42 44 43 39 35 28 22 21 18 16
50 49 50 50 49 47 45 45 45 44 44 44 39 29 24 23 22 19 18 17 16 16
51 50 50 51 50 48 46 46 46 44 35 25 23 24 24 22 21 20 19 19 19 19
50 49 48 48 49 48 46 44 36 25 23 23 24 24 24 23 23 23 23 23 24 25
48 48 47 46 46 45 38 26 25 25 25 25 26 26 27 28 30 30 29 28 27 27

GFSNIL_prec_cthk_057.txt.gz
RH
38 35 30 28 28 27 26 25 24 24 24 24 24 26 27 27 28 33 34 39 42 45
41 39 37 33 31 29 28 27 26 25 25 27 27 27 27 28 29 31 37 38 41 49
43 41 39 36 34 32 30 29 28 28 29 28 27 27 28 28 29 32 36 40 42 44
44 42 41 39 36 35 34 33 32 31 30 30 30 29 28 31 33 35 36 37 37 36
45 45 44 44 42 41 40 39 37 36 36 37 35 35 36 36 35 35 34 35 35 33
46 48 48 47 47 44 44 45 42 42 39 39 40 40 38 37 35 36 37 36 36 36
48 48 51 52 50 49 49 46 41 41 41 42 41 39 37 37 37 38 38 39 41 43
52 51 51 50 51 51 47 45 45 44 42 42 40 40 39 37 38 42 45 46 46 44
55 56 52 50 50 50 51 50 49 47 44 43 41 39 39 42 43 40 40 37 31 26
59 59 60 61 61 60 61 56 50 47 45 43 40 41 44 37 29 23 21 19 18 18
58 58 59 58 59 56 54 51 49 47 46 45 43 34 23 19 19 19 19 19 19 19
58 57 57 60 55 53 53 53 51 49 45 35 25 21 20 20 21 21 21 22 24 24
62 63 59 57 55 55 55 53 50 40 27 23 22 21 22 23 24 25 27 29 30 30
63 59 56 55 56 55 52 46 31 26 25 24 24 25 26 28 30 32 33 33 34 35

GFSNIL_prec_cthk_060.txt.gz
RH
47 46 43 40 37 35 33 30 29 29 28 27 26 25 25 25 27 29 32 35 38 38
51 49 47 43 41 39 37 35 32 31 30 28 27 26 27 27 28 29 33 34 38 39
51 49 47 45 43 42 40 38 35 33 30 28 28 29 27 28 28 31 35 35 40 45
45 45 45 45 45 44 43 41 39 35 33 32 32 31 30 30 32 34 34 39 40 40
45 45 45 45 44 44 46 45 43 42 38 36 37 37 37 37 35 35 35 36 34 34
47 46 45 45 45 45 48 48 48 48 45 43 44 44 43 39 39 37 35 35 35 34
50 48 47 48 48 47 49 51 52 52 50 49 47 44 40 39 37 37 36 36 37 37
54 52 50 48 51 53 51 52 53 54 54 50 45 43 40 39 38 38 40 42 41 39
56 56 57 57 56 58 57 53 53 54 51 50 47 44 42 41 42 44 42 36 29 22
60 62 59 59 60 60 62 64 63 61 57 56 51 48 44 44 44 33 23 18 17 16
63 63 64 63 62 63 68 70 68 65 60 55 50 49 45 31 22 18 17 18 18 19
67 66 64 62 61 66 70 70 63 56 55 55 48 35 26 21 19 19 21 22 23 24
71 69 68 67 66 64 66 65 65 62 54 42 31 26 22 22 23 25 26 27 28 30
72 74 73 71 70 70 67 66 61 53 36 30 26 25 25 26 29 30 30 31 32 34

GFSNIL_prec_cthk_063.txt.gz
RH
60 55 52 48 47 47 45 44 41 39 37 34 30 28 28 28 29 28 33 34 34 36
59 58 56 52 51 48 46 44 41 39 37 36 33 31 31 30 29 33 32 32 34 36
62 59 58 56 54 51 48 46 45 43 43 42 39 35 33 30 32 34 34 36 38 42
63 62 59 55 52 48 46 46 46 45 45 44 42 40 35 33 34 35 38 40 41 43
60 58 54 50 46 46 46 46 46 46 46 47 47 45 42 41 37 39 41 43 43 39
54 52 51 50 48 47 46 46 46 47 47 48 49 50 51 49 47 48 47 45 39 36
47 49 49 47 46 46 47 48 49 50 50 50 50 51 50 52 51 49 45 40 38 39
47 49 49 49 50 51 51 49 50 51 52 52 52 51 51 51 51 47 41 39 41 45
52 53 51 52 51 52 55 58 58 58 58 56 55 53 51 50 46 43 42 47 49 41
57 55 56 55 56 58 60 61 61 63 64 66 63 58 53 49 46 48 53 40 26 17
60 60 59 60 59 60 61 63 67 66 69 70 67 63 60 57 55 46 33 24 19 18
67 67 69 68 66 64 63 66 69 71 72 69 65 62 56 44 34 28 25 23 22 24
69 69 71 73 70 69 69 70 69 69 70 68 65 57 45 37 31 26 25 26 28 30
73 69 68 70 71 73 72 71 70 68 68 63 54 42 34 29 28 29 30 32 34 34

GFSNIL_prec_cthk_066.txt.gz
RH
70 70 70 70 72 67 62 53 50 48 45 44 44 43 41 38 36 32 31 35 35 36
72 74 74 71 67 64 58 56 53 50 47 44 44 43 41 40 39 37 35 34 33 35
73 74 76 72 68 66 63 60 57 53 51 49 48 47 45 44 43 40 38 38 38 40
73 75 75 72 69 68 63 61 55 51 49 46 46 46 45 45 45 44 42 42 42 41
68 67 65 65 66 65 65 57 54 50 48 47 46 46 45 45 47 48 46 47 48 47
56 65 66 63 63 60 51 50 47 47 47 47 47 47 47 47 48 48 50 51 51 51
48 53 55 55 51 52 51 50 50 50 49 48 48 49 49 48 50 52 54 53 52 49
46 46 46 47 50 48 47 49 50 51 53 52 53 53 52 51 52 52 54 54 54 50
50 52 51 51 51 49 48 50 52 54 52 53 56 59 59 58 58 53 52 50 49 48
55 53 54 55 54 53 53 54 56 57 58 60 63 64 64 63 64 62 56 51 51 48
56 55 57 57 59 61 62 62 60 60 62 65 68 69 67 67 66 64 62 53 45 38
66 64 64 64 64 65 66 65 65 67 68 70 72 73 72 70 63 56 46 41 37 32
70 69 68 68 68 68 67 69 73 71 72 75 75 75 70 61 53 45 42 40 35 33
71 71 71 72 73 70 67 70 76 75 76 74 72 65 60 53 51 47 42 37 35 34

GFSNIL_prec_cthk_069.txt.gz
RH
69 69 70 72 73 73 70 70 73 71 68 65 61 54 49 44 43 42 41 41 41 42
74 73 75 75 76 75 73 74 74 73 68 64 60 56 50 48 47 45 45 45 45 44
78 80 81 80 74 75 74 74 73 69 67 66 61 57 52 49 47 45 45 44 44 45
77 80 77 73 72 75 77 73 72 71 69 67 63 54 51 48 47 45 44 43 43 48
65 69 69 68 73 74 74 72 68 67 67 61 53 50 51 50 48 47 46 44 44 48
42 45 50 59 66 67 70 70 68 62 58 56 55 53 52 52 50 50 50 49 48 50
41 42 44 46 49 52 54 54 55 51 50 51 50 52 54 55 55 55 54 55 54 53
46 48 47 47 48 48 48 48 46 47 47 47 49 50 53 55 56 56 58 57 56 56
53 52 51 51 51 52 52 50 50 51 50 49 51 53 56 57 57 59 63 64 62 60
56 58 58 57 54 54 53 53 55 55 56 55 55 57 58 60 64 66 68 68 68 66
58 60 59 57 57 58 56 59 62 62 62 60 61 63 64 67 69 71 72 71 68 63
62 64 64 64 64 65 66 65 64 62 61 63 66 68 72 73 75 76 75 70 56 43
69 69 71 72 70 69 69 70 69 67 67 68 71 74 74 74 75 71 63 52 47 43
73 74 74 76 74 71 70 72 72 71 68 70 78 83 77 68 66 57 51 52 49 47

GFSNIL_prec_cthk_072.txt.gz
RH
73 75 76 78 83 82 81 80 80 80 75 70 70 75 71 69 66 59 54 49 46 43
64 68 71 75 78 77 77 81 81 79 80 76 72 71 66 65 64 60 54 50 49 45
64 66 73 79 80 80 81 83 82 79 76 71 71 72 71 69 67 61 53 50 48 46
59 64 71 77 79 82 84 82 74 76 77 76 72 70 68 66 62 55 53 50 49 49
47 56 65 73 78 81 80 76 73 76 78 78 73 69 66 63 59 56 53 54 53 52
35 40 46 51 52 52 51 55 63 70 73 68 66 62 57 52 53 55 56 56 58 57
36 37 39 41 43 45 46 48 50 52 54 54 55 50 48 48 49 50 51 54 54 56
38 39 40 43 45 47 47 49 49 49 48 45 45 45 44 45 46 49 52 54 57 59
50 50 51 52 52 52 53 53 52 52 50 50 50 49 48 49 48 51 54 55 59 61
55 56 57 56 56 57 56 57 57 55 53 52 52 53 53 53 56 58 60 61 64 66
56 57 56 58 59 57 56 56 55 55 55 57 58 57 56 58 60 62 66 69 71 71
55 58 60 61 61 61 61 61 61 63 65 65 64 62 62 64 67 68 71 75 77 75
60 60 65 67 68 68 70 69 70 70 69 67 67 70 72 75 75 76 78 79 71 61
62 64 70 72 73 74 76 74 74 73 69 68 72 73 73 74 76 77 74 62 55 53

GFSNIL_prec_cthk_075.txt.gz
RH
80 84 86 87 89 87 85 84 84 91 85 84 84 82 79 76 76 74 68 64 63 62
64 69 73 78 85 82 75 78 83 83 84 83 77 79 74 71 69 70 69 67 66 64
57 58 60 64 71 72 73 75 81 80 80 80 81 78 75 71 70 70 69 68 65 60
45 51 57 60 63 68 73 74 77 80 83 83 83 75 75 73 73 72 69 64 59 56
34 37 44 48 52 57 65 76 78 78 78 76 73 72 75 77 75 70 64 61 57 60
31 32 34 39 44 48 51 53 57 57 56 52 51 56 62 61 57 57 56 52 53 52
31 32 34 36 38 41 44 45 45 44 44 45 47 47 47 46 45 46 47 47 48 50
36 36 37 38 39 40 41 43 43 45 46 47 48 47 46 45 44 44 46 46 49 50
43 42 40 40 41 43 45 47 50 51 52 51 51 51 51 50 50 49 51 53 54 56
46 46 47 49 50 52 53 54 55 52 52 52 52 53 53 53 53 52 54 57 60 62
48 51 53 54 55 55 56 55 53 53 53 52 52 54 55 57 58 59 62 63 65 66
51 53 55 56 55 57 58 57 56 56 56 56 57 59 61 62 62 64 67 70 72 73
52 54 57 59 59 61 63 62 62 63 63 64 65 65 65 63 64 67 71 75 79 79
55 58 60 63 62 62 66 67 67 67 69 70 70 69 69 67 68 72 74 74 69 63

GFSNIL_prec_cthk_081.txt.gz
RH
65 68 69 72 76 79 84 85 88 87 89 88 94 93 91 89 88 86 83 76 73 68
56 57 60 61 62 64 68 75 81 87 90 89 90 88 86 86 84 77 76 76 77 70
60 59 58 57 55 52 56 62 66 74 84 82 81 78 74 73 75 75 73 73 70 67
52 54 56 55 54 51 48 51 58 67 73 72 76 77 70 70 69 71 70 68 65 60
35 40 43 42 43 44 42 44 50 55 62 66 65 65 64 64 66 64 60 54 49 44
32 34 35 35 36 35 36 38 41 47 51 54 54 53 55 58 54 52 46 41 39 39
32 33 32 31 31 32 33 35 37 40 45 48 48 50 51 48 48 43 40 38 37 37
34 32 32 32 31 32 32 34 34 35 38 39 42 44 46 45 40 39 39 39 39 39
36 37 36 36 38 38 38 39 40 38 39 37 38 40 40 41 41 41 42 41 39 40
41 42 44 43 44 43 44 44 45 44 44 43 45 45 45 45 46 44 43 42 41 43
44 45 48 52 53 52 52 51 52 53 53 54 52 50 48 47 45 44 45 45 47 50
48 48 48 52 54 56 57 57 56 59 58 58 56 52 49 48 49 50 50 51 55 56
51 52 52 53 57 61 61 64 61 62 62 61 59 56 55 56 55 54 55 59 61 61
56 54 55 55 61 67 68 68 66 66 66 65 64 62 59 60 60 61 62 63 65 65

GFSNIL_prec_cthk_087.txt.gz
RH
93 91 89 88 88 87 86 82 82 89 91 91 94 90 94 94 95 91 91 92 86 88
87 90 91 88 81 79 78 82 84 90 93 90 90 95 93 92 94 90 88 87 86 84
77 77 81 81 80 75 75 77 83 83 86 81 82 84 90 89 91 92 91 87 82 80
70 71 69 68 68 62 63 65 65 67 68 68 68 73 79 84 89 82 78 76 74 70
57 57 59 61 61 60 57 58 56 57 59 60 62 62 65 74 75 72 71 68 65 60
51 50 47 49 48 48 47 47 46 46 48 54 58 62 63 63 65 64 63 60 57 54
46 44 43 44 43 43 42 39 40 40 41 44 49 55 54 56 57 60 59 58 57 53
43 41 41 41 42 43 42 39 39 39 38 39 41 45 50 51 55 59 58 57 53 51
46 43 42 41 41 44 45 46 43 41 40 39 40 45 50 50 50 50 53 52 50 47
48 47 46 44 44 45 47 49 49 48 47 45 46 47 48 50 50 49 48 48 48 47
44 45 47 48 48 47 47 50 52 52 52 51 50 53 53 54 52 51 52 52 51 48
41 41 43 46 47 47 47 48 52 56 58 58 60 61 59 58 58 57 57 56 55 52
35 41 43 45 46 45 47 50 52 56 62 63 66 67 67 64 62 62 63 63 61 56
35 36 40 45 47 49 50 52 54 56 62 66 70 72 73 75 74 70 66 66 64 64

GFSNIL_prec_cthk_090.txt.gz
RH
98 94 94 94 92 89 91 93 90 84 88 85 82 85 89 82 91 94 89 94 94 94
90 92 95 92 93 91 87 83 82 84 89 84 82 83 90 93 96 95 91 93 92 93
88 90 88 91 93 87 87 84 84 91 94 91 91 89 91 93 92 92 92 91 92 89
81 82 82 78 78 81 82 81 80 83 89 87 82 79 81 87 88 90 93 92 91 92
64 64 62 61 66 69 68 64 65 63 66 67 66 70 76 75 76 82 93 92 87 85
53 50 48 47 48 49 50 51 52 53 52 53 58 59 61 65 66 73 76 75 73 71
48 46 42 41 42 43 43 41 41 45 47 48 50 53 56 58 67 69 70 69 69 74
44 42 40 39 40 40 41 40 41 42 43 44 46 49 50 52 55 59 65 69 74 77
43 43 43 43 43 41 42 43 45 45 47 46 45 47 49 52 52 54 57 62 67 66
40 41 41 42 43 42 43 46 47 48 51 51 50 50 51 54 56 57 57 55 56 57
31 34 35 36 38 40 42 45 48 49 52 55 56 57 58 57 57 57 57 56 56 56
25 25 26 28 32 37 42 45 47 51 52 55 57 61 63 64 63 61 60 59 58 58
23 23 23 26 28 31 37 41 44 51 56 56 59 64 68 69 68 70 70 68 65 63
23 24 24 24 25 26 32 38 46 49 53 56 60 66 71 72 71 75 76 76 74 72